User: anonymous   Login
Location: Oshawa
(43.9000°N, 78.8670°W)
Time: 15:02:04
(UTC-05:00)
Language:

Cosmos 839 Rocket - Orbit

View from above orbital plane
View from above orbital plane
View from above satellite
View from above satellite

Ground track
Ground track

The orbit data is extracted from the following two-line orbital elements,

1 09013U 76067B   15 63.72651557 -.00000036  00000-0  00000+0 0  9991
2 09013 065.8652 188.5783 0709305 039.7731 325.3526 12.35315058743453
Epoch (UTC): 04 March 2015 17:26:10
Eccentricity: 0.0709305
inclination: 65.8652°
perigee height: 966 km
apogee height: 2087 km
right ascension of ascending node: 188.5783°
argument of perigee: 39.7731°
revolutions per day: 12.35315058
mean anomaly at epoch: 325.3526°
orbit number at epoch: 74345

The dashed part of the orbit path shows where the satellite is in the earth's shadow,  

DLR